This is the latest recevied weather packets stored in our database for station/object CE7LGA-10. If no packets are shown the sender has not sent any weather packets the latest 10 day(s).
| Time | Temp. | Humidity | Pressure | Rain* | Wind** | Luminosity | Snow |
|---|---|---|---|---|---|---|---|
| 1777946832 | 15.56° C | 74% | 1001.4 hPa | - | - | - | - |
| 1777945932 | 15.56° C | 74% | 1001.5 hPa | - | - | - | - |
| 1777945032 | 15.56° C | 74% | 1001.5 hPa | - | - | - | - |
| 1777944132 | 16.11° C | 74% | 1001.6 hPa | - | - | - | - |
| 1777943232 | 16.67° C | 74% | 1001.4 hPa | - | - | - | - |
| 1777942332 | 16.11° C | 76% | 1001.4 hPa | - | - | - | - |
| 1777941433 | 16.11° C | 75% | 1001.4 hPa | - | - | - | - |
| 1777940533 | 16.11° C | 76% | 1001.4 hPa | - | - | - | - |
| 1777939633 | 16.11° C | 76% | 1001.4 hPa | - | - | - | - |
| 1777938732 | 16.11° C | 75% | 1001.3 hPa | - | - | - | - |
| 1777937832 | 16.11° C | 75% | 1001.5 hPa | - | - | - | - |
| 1777936931 | 16.67° C | 76% | 1001.4 hPa | - | - | - | - |
| 1777936031 | 16.11° C | 78% | 1001.3 hPa | - | - | - | - |
| 1777935131 | 15.56° C | 74% | 1001.2 hPa | - | - | - | - |
| 1777934231 | 15.56° C | 76% | 1001 hPa | - | - | - | - |
| 1777933331 | 15.56° C | 74% | 1000.8 hPa | - | - | - | - |
| 1777932431 | 15.56° C | 75% | 1000.6 hPa | - | - | - | - |
| 1777931531 | 16.11° C | 73% | 1000.8 hPa | - | - | - | - |
| 1777930631 | 15.56° C | 73% | 1000.7 hPa | - | - | - | - |
| 1777929730 | 15.56° C | 73% | 1000.5 hPa | - | - | - | - |
| 1777928830 | 15.56° C | 73% | 1000.6 hPa | - | - | - | - |
| 1777927930 | 15.56° C | 74% | 1000.5 hPa | - | - | - | - |
| 1777927030 | 15.56° C | 74% | 1000.6 hPa | - | - | - | - |
| 1777926130 | 15.56° C | 74% | 1000.5 hPa | - | - | - | - |
| 1777925230 | 15° C | 76% | 1000.2 hPa | - | - | - | - |
* Rain since midnight (hover to see other rain measurements)
** Current wind speed in m/s (hover to see current wind gust speed)